Flight Information

DEPARTURE
ALBUQUERQUE, NM
Elevation:
5354
Runways:
8/26 - 13793x150 - CONC-G
12/30 - 6000x150 - CONC-G
3/21 - 10000x150 - CONC-G
Active PE Departure:
3 - 8
Current PE ATIS:
H
Altimeter:
30.49
Remarks:
V F R DEPARTURES CONTACT CLEARANCE DELIVERY, ADVISE ON COURSE HEADING, ALTITUDE, AND IF FLIGHT FOLLOWING IS REQUESTED.
ATIS:
118 505-856-4928
Clearance Delivery:
119.2
Ground:
121.9
Tower:
ALBUQUERQUE TOWER 120.3
DESTINATION
,
Elevation:
TPA:
1000 (est.)


6211.8 NM80° True-12° Var68° HDG

Flight Plan:
(click to file on line)

1. Type
2. Aircraft Identification
3. Aircraft Type / Special Equipment
4. True Airspeed
kts
5. Departure Airport
(ICAO code)
6. Arriving Airport
(ICAO code)
7. Cruising Altitude
ft
8. Alternate Airport
(ICAO code)
9. Route of Flight
10. Remarks


00:00:00 Departure ATIS: Destination ATIS:

Clearance Limit:
Route:
Altitude: Expect in minutes
Frequency:
Transponder: (7500 Hijack / 7600 Lost Comms / 7700 Emergency)


KABQ 211752Z 09010KT 10SM CLR 22/00 A3049 RMK AO2 SLP252 T02170000 10217 20144 50009
Time: 2021-09-21T17:52:00Z
1632248578
Winds: 90 @ 10 kts
Visibility: 10.0 sm
Clouds (AGL): CLR
Temperature: 21.7 C
Dew Point: 0.0 C
Pressure: 30.490158 in Hgbr


Notes:

Data extracted from FAA Digital Chart Supplement. Effective: 0901Z Thursday, AUG 12, 2021 to 0901Z Thursday, OCT 7, 2021
Current ATIS data is provided courtisy of PilotEdge.